Time,TemperatureF,DewpointF,PressureIn,WindDirection,WindDirectionDegrees,WindSpeedMPH,WindSpeedGustMPH,Humidity,HourlyPrecipIn,Conditions,Clouds,dailyrainin,SolarRadiationWatts/m^2,SoftwareType,DateUTC
2013-02-12 00:01:00,39.0,37.0,-100.00,SE,133,0.0,2.0,92,0.00,,,0.00,0.000000,,2013-02-12 05:01:00,
2013-02-12 00:32:00,39.0,37.0,-100.00,South,176,0.0,0.0,92,0.00,,,0.00,0.000000,,2013-02-12 05:32:00,
2013-02-12 00:42:00,39.0,37.0,-100.00,South,176,0.0,0.0,92,0.00,,,0.00,0.000000,,2013-02-12 05:42:00,
2013-02-12 00:52:00,39.0,37.0,-100.00,South,176,0.0,0.0,92,0.00,,,0.00,0.000000,,2013-02-12 05:52:00,
2013-02-12 01:02:00,39.0,37.0,-100.00,South,176,0.0,0.0,92,0.00,,,0.00,0.000000,,2013-02-12 06:02:00,
2013-02-12 01:32:00,39.0,37.0,-100.00,NNE,15,0.0,2.0,91,0.00,,,0.00,0.000000,,2013-02-12 06:32:00,
2013-02-12 01:42:00,39.0,37.0,-100.00,NNE,15,0.0,2.0,91,0.00,,,0.00,0.000000,,2013-02-12 06:42:00,
2013-02-12 01:52:00,39.0,37.0,-100.00,NNE,15,0.0,2.0,91,0.00,,,0.00,0.000000,,2013-02-12 06:52:00,
2013-02-12 02:02:00,39.0,37.0,-100.00,NNE,15,0.0,2.0,91,0.00,,,0.00,0.000000,,2013-02-12 07:02:00,
2013-02-12 02:32:00,38.0,36.0,-100.00,NNE,26,1.0,4.0,92,0.00,,,0.00,0.000000,,2013-02-12 07:32:00,
2013-02-12 02:42:00,38.0,36.0,-100.00,NNE,26,1.0,4.0,92,0.00,,,0.00,0.000000,,2013-02-12 07:42:00,
2013-02-12 02:52:00,38.0,36.0,-100.00,NNE,26,1.0,4.0,92,0.00,,,0.00,0.000000,,2013-02-12 07:52:00,
2013-02-12 03:01:00,38.0,36.0,-100.00,NNE,26,1.0,4.0,92,0.00,,,0.00,0.000000,,2013-02-12 08:01:00,
2013-02-12 03:32:00,37.0,35.0,-100.00,SW,227,0.0,4.0,93,0.00,,,0.00,0.000000,,2013-02-12 08:32:00,
2013-02-12 03:42:00,37.0,35.0,-100.00,SW,227,0.0,4.0,93,0.00,,,0.00,0.000000,,2013-02-12 08:42:00,
2013-02-12 03:52:00,37.0,35.0,-100.00,SW,227,0.0,4.0,93,0.00,,,0.00,0.000000,,2013-02-12 08:52:00,
2013-02-12 04:02:00,37.0,35.0,-100.00,SW,227,0.0,4.0,93,0.00,,,0.00,0.000000,,2013-02-12 09:02:00,
2013-02-12 04:32:00,37.0,35.0,-100.00,WNW,297,0.0,3.0,93,0.00,,,0.00,0.000000,,2013-02-12 09:32:00,
2013-02-12 04:42:00,37.0,35.0,-100.00,WNW,297,0.0,3.0,93,0.00,,,0.00,0.000000,,2013-02-12 09:42:00,
2013-02-12 04:52:00,37.0,35.0,-100.00,WNW,297,0.0,3.0,93,0.00,,,0.00,0.000000,,2013-02-12 09:52:00,
2013-02-12 05:01:00,37.0,35.0,-100.00,WNW,297,0.0,3.0,93,0.00,,,0.00,0.000000,,2013-02-12 10:01:00,
2013-02-12 05:32:00,38.0,35.0,-100.00,South,189,0.0,5.0,89,0.00,,,0.00,0.000000,,2013-02-12 10:32:00,
2013-02-12 05:43:00,38.0,35.0,-100.00,South,189,0.0,5.0,89,0.00,,,0.00,0.000000,,2013-02-12 10:43:00,
2013-02-12 05:52:00,38.0,35.0,-100.00,South,189,0.0,5.0,89,0.00,,,0.00,0.000000,,2013-02-12 10:52:00,
2013-02-12 06:02:00,38.0,35.0,-100.00,South,189,0.0,5.0,89,0.00,,,0.00,0.000000,,2013-02-12 11:02:00,
2013-02-12 06:32:00,37.0,35.0,-100.00,NNE,24,3.0,6.0,92,0.00,,,0.00,0.000000,,2013-02-12 11:32:00,
2013-02-12 06:42:00,37.0,35.0,-100.00,NNE,24,3.0,6.0,92,0.00,,,0.00,0.000000,,2013-02-12 11:42:00,
2013-02-12 06:53:00,37.0,35.0,-100.00,NNE,24,3.0,6.0,92,0.00,,,0.00,0.000000,,2013-02-12 11:53:00,
2013-02-12 07:02:00,37.0,35.0,-100.00,NNE,24,3.0,6.0,92,0.00,,,0.00,0.000000,,2013-02-12 12:02:00,
2013-02-12 07:32:00,37.0,35.0,-100.00,SW,219,2.0,4.0,93,0.00,,,0.00,0.000000,,2013-02-12 12:32:00,
2013-02-12 07:42:00,37.0,35.0,-100.00,SW,219,2.0,4.0,93,0.00,,,0.00,0.000000,,2013-02-12 12:42:00,
2013-02-12 07:53:00,37.0,35.0,-100.00,SW,219,2.0,4.0,93,0.00,,,0.00,0.000000,,2013-02-12 12:53:00,
2013-02-12 08:02:00,37.0,35.0,-100.00,SW,219,2.0,4.0,93,0.00,,,0.00,0.000000,,2013-02-12 13:02:00,
2013-02-12 08:32:00,36.0,34.0,-100.00,East,93,0.0,3.0,91,0.00,,,0.00,7.000000,,2013-02-12 13:32:00,
2013-02-12 08:42:00,36.0,34.0,-100.00,East,93,0.0,3.0,91,0.00,,,0.00,7.000000,,2013-02-12 13:42:00,
2013-02-12 08:52:00,36.0,34.0,-100.00,East,93,0.0,3.0,91,0.00,,,0.00,7.000000,,2013-02-12 13:52:00,
2013-02-12 09:01:00,36.0,34.0,-100.00,East,93,0.0,3.0,91,0.00,,,0.00,7.000000,,2013-02-12 14:01:00,
2013-02-12 09:32:00,42.0,35.0,-100.00,NE,50,3.0,6.0,75,0.00,,,0.00,71.000000,,2013-02-12 14:32:00,
2013-02-12 09:42:00,42.0,35.0,-100.00,NE,50,3.0,6.0,75,0.00,,,0.00,71.000000,,2013-02-12 14:42:00,
2013-02-12 09:52:00,42.0,35.0,-100.00,NE,50,3.0,6.0,75,0.00,,,0.00,71.000000,,2013-02-12 14:52:00,
2013-02-12 10:02:00,42.0,35.0,-100.00,NE,50,3.0,6.0,75,0.00,,,0.00,71.000000,,2013-02-12 15:02:00,
2013-02-12 10:32:00,50.0,31.0,-100.00,NNE,30,5.0,11.0,47,0.00,,,0.00,290.000000,,2013-02-12 15:32:00,
2013-02-12 10:42:00,50.0,31.0,-100.00,NNE,30,5.0,11.0,47,0.00,,,0.00,290.000000,,2013-02-12 15:42:00,
2013-02-12 10:52:00,50.0,31.0,-100.00,NNE,30,5.0,11.0,47,0.00,,,0.00,290.000000,,2013-02-12 15:52:00,
2013-02-12 11:01:00,50.0,31.0,-100.00,NNE,30,5.0,11.0,47,0.00,,,0.00,290.000000,,2013-02-12 16:01:00,
2013-02-12 11:32:00,53.0,29.0,-100.00,NE,47,5.0,14.0,39,0.00,,,0.00,479.000000,,2013-02-12 16:32:00,
2013-02-12 11:42:00,53.0,29.0,-100.00,NE,47,5.0,14.0,39,0.00,,,0.00,479.000000,,2013-02-12 16:42:00,
2013-02-12 11:52:00,53.0,29.0,-100.00,NE,47,5.0,14.0,39,0.00,,,0.00,479.000000,,2013-02-12 16:52:00,
2013-02-12 12:01:00,53.0,29.0,-100.00,NE,47,5.0,14.0,39,0.00,,,0.00,479.000000,,2013-02-12 17:01:00,
2013-02-12 12:32:00,54.0,28.0,-100.00,NNW,348,2.0,13.0,37,0.00,,,0.00,346.000000,,2013-02-12 17:32:00,
2013-02-12 12:42:00,54.0,28.0,-100.00,NNW,348,2.0,13.0,37,0.00,,,0.00,346.000000,,2013-02-12 17:42:00,
2013-02-12 12:52:00,54.0,28.0,-100.00,NNW,348,2.0,13.0,37,0.00,,,0.00,346.000000,,2013-02-12 17:52:00,
2013-02-12 13:02:00,54.0,28.0,-100.00,NNW,348,2.0,13.0,37,0.00,,,0.00,346.000000,,2013-02-12 18:02:00,
2013-02-12 14:32:00,53.0,28.0,-100.00,ENE,72,0.0,9.0,38,-99.99,,,-99.99,195.000000,,2013-02-12 19:32:00,
2013-02-12 14:42:00,53.0,28.0,-100.00,ENE,72,0.0,9.0,38,-99.99,,,-99.99,195.000000,,2013-02-12 19:42:00,
2013-02-12 14:52:00,53.0,28.0,-100.00,ENE,72,0.0,9.0,38,-99.99,,,-99.99,195.000000,,2013-02-12 19:52:00,
2013-02-12 15:01:00,53.0,28.0,-100.00,ENE,72,0.0,9.0,38,-99.99,,,-99.99,195.000000,,2013-02-12 20:01:00,
2013-02-12 16:32:00,52.0,30.0,-100.00,NNE,14,3.0,8.0,42,-99.99,,,0.00,82.000000,,2013-02-12 21:32:00,
2013-02-12 16:42:00,52.0,30.0,-100.00,NNE,14,3.0,8.0,42,-99.99,,,0.00,82.000000,,2013-02-12 21:42:00,
2013-02-12 16:52:00,52.0,30.0,-100.00,NNE,14,3.0,8.0,42,-99.99,,,0.00,82.000000,,2013-02-12 21:52:00,
2013-02-12 17:01:00,52.0,30.0,-100.00,NNE,14,3.0,8.0,42,-99.99,,,0.00,82.000000,,2013-02-12 22:01:00,
2013-02-12 17:32:00,51.0,30.0,-100.00,NNE,18,4.0,7.0,45,0.00,,,0.00,38.000000,,2013-02-12 22:32:00,
2013-02-12 17:42:00,51.0,30.0,-100.00,NNE,18,4.0,7.0,45,0.00,,,0.00,38.000000,,2013-02-12 22:42:00,
2013-02-12 17:52:00,51.0,30.0,-100.00,NNE,18,4.0,7.0,45,0.00,,,0.00,38.000000,,2013-02-12 22:52:00,
2013-02-12 18:02:00,51.0,30.0,-100.00,NNE,18,4.0,7.0,45,0.00,,,0.00,38.000000,,2013-02-12 23:02:00,
2013-02-12 18:32:00,49.0,35.0,-100.00,South,186,0.0,6.0,58,0.00,,,0.00,7.000000,,2013-02-12 23:32:00,
2013-02-12 18:42:00,49.0,35.0,-100.00,South,186,0.0,6.0,58,0.00,,,0.00,7.000000,,2013-02-12 23:42:00,
2013-02-12 18:52:00,49.0,35.0,-100.00,South,186,0.0,6.0,58,0.00,,,0.00,7.000000,,2013-02-12 23:52:00,
2013-02-12 19:02:00,49.0,35.0,-100.00,South,186,0.0,6.0,58,0.00,,,0.00,7.000000,,2013-02-13 00:02:00,
2013-02-12 19:32:00,46.0,37.0,-100.00,South,176,0.0,4.0,70,0.00,,,-99.99,0.000000,,2013-02-13 00:32:00,
2013-02-12 19:42:00,46.0,37.0,-100.00,South,176,0.0,4.0,70,0.00,,,-99.99,0.000000,,2013-02-13 00:42:00,
2013-02-12 19:52:00,46.0,37.0,-100.00,South,176,0.0,4.0,70,0.00,,,-99.99,0.000000,,2013-02-13 00:52:00,
2013-02-12 20:01:00,46.0,37.0,-100.00,South,176,0.0,4.0,70,0.00,,,-99.99,0.000000,,2013-02-13 01:01:00,
2013-02-12 21:42:00,43.0,40.0,-100.00,SE,127,1.0,6.0,88,-99.99,,,0.02,0.000000,,2013-02-13 02:42:00,
2013-02-12 21:52:00,43.0,40.0,-100.00,SE,127,1.0,6.0,88,-99.99,,,0.02,0.000000,,2013-02-13 02:52:00,
2013-02-12 22:02:00,43.0,40.0,-100.00,SE,127,1.0,6.0,88,-99.99,,,0.02,0.000000,,2013-02-13 03:02:00,
2013-02-12 22:32:00,43.0,41.0,-100.00,NE,37,0.0,0.0,91,0.00,,,0.02,0.000000,,2013-02-13 03:32:00,
2013-02-12 22:42:00,43.0,41.0,-100.00,NE,37,0.0,0.0,91,0.00,,,0.02,0.000000,,2013-02-13 03:42:00,
2013-02-12 22:52:00,43.0,41.0,-100.00,NE,37,0.0,0.0,91,0.00,,,0.02,0.000000,,2013-02-13 03:52:00,
2013-02-12 23:01:00,43.0,41.0,-100.00,NE,37,0.0,0.0,91,0.00,,,0.02,0.000000,,2013-02-13 04:01:00,
2013-02-12 23:32:00,42.0,41.0,-100.00,SSE,159,0.0,0.0,95,0.00,,,0.02,0.000000,,2013-02-13 04:32:00,
2013-02-12 23:42:00,42.0,41.0,-100.00,SSE,159,0.0,0.0,95,0.00,,,0.02,0.000000,,2013-02-13 04:42:00,
2013-02-12 23:52:00,42.0,41.0,-100.00,SSE,159,0.0,0.0,95,0.00,,,0.02,0.000000,,2013-02-13 04:52:00,